SCR544 KCAE-KSMS

Flight info

Callsign SCR544
Flight time 0h 12m
Altitude 9000
Route PUUFF HAVPI
Aircraft SF34/M-V/N

Departure

Time 2026-04-15 20:58
Airport Columbia Metropolitan Airport (KCAE)

Arrival

Time 2026-04-15 21:11
Airport Sumter Airport (KSMS)
Time Latitude Longitude Altitude Speed Heading
2026-04-15 20:47 33.94429 -81.12480 223 ft 0 kts 42°
2026-04-15 20:54 33.94430 -81.12480 226 ft 0 kts 47°
2026-04-15 20:55 33.94428 -81.12467 225 ft 4 kts 133°
2026-04-15 20:55 33.94391 -81.12492 224 ft 10 kts 221°
2026-04-15 20:55 33.94352 -81.12570 224 ft 15 kts 273°
2026-04-15 20:55 33.94385 -81.12718 223 ft 21 kts 283°
2026-04-15 20:56 33.94425 -81.12922 224 ft 28 kts 290°
2026-04-15 20:56 33.94452 -81.13032 223 ft 0 kts 284°
2026-04-15 20:56 33.94464 -81.13087 223 ft 14 kts 284°
2026-04-15 20:56 33.94487 -81.13212 223 ft 17 kts 264°
2026-04-15 20:57 33.94403 -81.13194 223 ft 16 kts 137°
2026-04-15 20:57 33.94373 -81.13162 223 ft 10 kts 137°
2026-04-15 20:57 33.94294 -81.13075 223 ft 20 kts 136°
2026-04-15 20:57 33.94249 -81.13004 224 ft 13 kts 112°
2026-04-15 20:58 33.94226 -81.12911 225 ft 44 kts 107°
2026-04-15 20:58 33.94069 -81.12205 258 ft 124 kts 103°
2026-04-15 20:58 33.93859 -81.10967 542 ft 173 kts 107°
2026-04-15 20:58 33.93545 -81.09484 1142 ft 196 kts 104°
2026-04-15 20:59 33.93386 -81.07753 1747 ft 219 kts 91°
2026-04-15 20:59 33.93891 -81.05948 2341 ft 235 kts 58°
2026-04-15 20:59 33.94877 -81.04311 2690 ft 237 kts 53°
2026-04-15 20:59 33.95811 -81.02840 2977 ft 226 kts 52°
2026-04-15 21:00 33.96777 -81.01355 3278 ft 226 kts 52°
2026-04-15 21:00 33.97681 -80.99800 3550 ft 227 kts 68°
2026-04-15 21:00 33.97870 -80.97961 3825 ft 223 kts 103°
2026-04-15 21:00 33.97289 -80.96288 4227 ft 213 kts 117°
2026-04-15 21:01 33.97030 -80.94521 4732 ft 217 kts 92°
2026-04-15 21:01 33.97095 -80.92703 5212 ft 217 kts 90°
2026-04-15 21:01 33.97120 -80.90876 5691 ft 219 kts 94°
2026-04-15 21:01 33.97072 -80.89036 6181 ft 220 kts 94°
2026-04-15 21:02 33.96921 -80.87207 6650 ft 219 kts 106°
2026-04-15 21:02 33.96461 -80.85452 7118 ft 227 kts 110°
2026-04-15 21:02 33.96004 -80.83580 7594 ft 240 kts 106°
2026-04-15 21:02 33.95620 -80.81586 8086 ft 248 kts 105°
2026-04-15 21:03 33.95188 -80.79553 8618 ft 251 kts 107°
2026-04-15 21:03 33.94742 -80.77508 9065 ft 259 kts 107°
2026-04-15 21:03 33.94294 -80.75326 9112 ft 275 kts 105°
2026-04-15 21:03 33.93812 -80.73051 9118 ft 283 kts 107°
2026-04-15 21:04 33.93329 -80.70788 9093 ft 260 kts 105°
2026-04-15 21:04 33.92906 -80.68761 9093 ft 243 kts 107°
2026-04-15 21:04 33.92491 -80.66822 9092 ft 236 kts 107°
2026-04-15 21:04 33.92094 -80.64949 9094 ft 233 kts 106°
2026-04-15 21:05 33.91825 -80.63672 8862 ft 238 kts 106°
2026-04-15 21:05 33.91430 -80.61818 8123 ft 222 kts 107°
2026-04-15 21:05 33.90926 -80.59485 6936 ft 217 kts 111°
2026-04-15 21:05 33.90124 -80.58022 5980 ft 207 kts 143°
2026-04-15 21:06 33.89360 -80.57325 5337 ft 202 kts 147°
2026-04-15 21:06 33.88307 -80.56220 4376 ft 201 kts 139°
2026-04-15 21:06 33.87400 -80.55010 3443 ft 185 kts 136°
2026-04-15 21:06 33.86567 -80.53916 2492 ft 171 kts 138°
2026-04-15 21:07 33.85912 -80.52833 1889 ft 153 kts 107°
2026-04-15 21:07 33.86051 -80.51450 1999 ft 189 kts 69°
2026-04-15 21:07 33.86976 -80.50173 2011 ft 215 kts 39°
2026-04-15 21:07 33.88104 -80.49064 2015 ft 203 kts 42°
2026-04-15 21:08 33.89116 -80.47910 2020 ft 200 kts 45°
2026-04-15 21:08 33.90118 -80.46771 2019 ft 198 kts 43°
2026-04-15 21:08 33.91128 -80.45651 2019 ft 198 kts 44°
2026-04-15 21:08 33.92132 -80.44518 2018 ft 197 kts 43°
2026-04-15 21:09 33.93111 -80.43416 1818 ft 176 kts 43°
2026-04-15 21:09 33.93976 -80.42446 1652 ft 160 kts 44°
2026-04-15 21:09 33.94765 -80.41562 1470 ft 150 kts 43°
2026-04-15 21:09 33.95513 -80.40718 1232 ft 151 kts 44°
2026-04-15 21:10 33.96292 -80.39829 1036 ft 155 kts 45°
2026-04-15 21:10 33.97018 -80.39013 930 ft 129 kts 39°
2026-04-15 21:10 33.97694 -80.38288 705 ft 135 kts 45°
2026-04-15 21:10 33.98358 -80.37510 491 ft 126 kts 41°
2026-04-15 21:11 33.98970 -80.36834 219 ft 114 kts 47°
2026-04-15 21:11 33.99428 -80.36306 198 ft 59 kts 49°
2026-04-15 21:11 33.99664 -80.36043 184 ft 42 kts 43°
2026-04-15 21:11 33.99833 -80.35865 184 ft 34 kts 43°
2026-04-15 21:12 33.99929 -80.35738 192 ft 0 kts 69°
2026-04-15 21:12 33.99917 -80.35718 185 ft 9 kts 142°
2026-04-15 21:12 33.99826 -80.35694 197 ft 16 kts 188°
2026-04-15 21:12 33.99795 -80.35719 192 ft 10 kts 223°
2026-04-15 21:13 33.99708 -80.35814 183 ft 23 kts 221°
2026-04-15 21:13 33.99637 -80.35896 185 ft 15 kts 224°
2026-04-15 21:13 33.99533 -80.36014 191 ft 19 kts 223°
2026-04-15 21:13 33.99432 -80.36127 191 ft 23 kts 224°
2026-04-15 21:14 33.99344 -80.36226 186 ft 5 kts 217°
2026-04-15 21:14 33.99302 -80.36238 191 ft 2 kts 177°
2026-04-15 21:14 33.99246 -80.36236 191 ft 1 kts 188°
2026-04-15 21:14 33.99216 -80.36254 185 ft 1 kts 210°
2026-04-15 21:15 33.99202 -80.36264 185 ft 0 kts 211°
2026-04-15 21:31 33.99197 -80.36270 195 ft 4 kts 236°
2026-04-15 21:32 33.99213 -80.36296 193 ft 6 kts 323°
2026-04-15 21:32 33.99208 -80.36347 195 ft 7 kts 223°
2026-04-15 21:32 33.99170 -80.36422 189 ft 16 kts 229°
2026-04-15 21:32 33.99163 -80.36454 189 ft 6 kts 289°
2026-04-15 21:33 33.99220 -80.36529 191 ft 16 kts 337°
2026-04-15 21:33 33.99264 -80.36506 193 ft 0 kts 53°
2026-04-15 21:33 33.99328 -80.36428 186 ft 51 kts 43°
2026-04-15 21:33 33.99812 -80.35885 255 ft 131 kts 41°
2026-04-15 21:34 34.00580 -80.35030 816 ft 170 kts 43°
2026-04-15 21:34 34.01291 -80.33778 1382 ft 188 kts 79°
2026-04-15 21:34 34.01155 -80.32271 1966 ft 183 kts 122°
2026-04-15 21:34 34.00319 -80.31146 2548 ft 180 kts 142°
2026-04-15 21:35 33.99376 -80.30122 3041 ft 188 kts 148°
2026-04-15 21:35 33.98111 -80.29635 3124 ft 192 kts 183°
2026-04-15 21:35 33.96881 -80.30236 3128 ft 202 kts 221°
2026-04-15 21:35 33.96035 -80.31616 3136 ft 207 kts 233°
2026-04-15 21:36 33.94987 -80.32773 3136 ft 209 kts 214°
2026-04-15 21:36 33.93743 -80.33676 3135 ft 210 kts 211°
2026-04-15 21:36 33.92501 -80.34606 3134 ft 210 kts 214°
2026-04-15 21:36 33.91289 -80.35605 3133 ft 212 kts 214°
2026-04-15 21:37 33.90064 -80.36577 3139 ft 211 kts 213°
2026-04-15 21:37 33.88838 -80.37545 3138 ft 210 kts 214°
2026-04-15 21:37 33.87619 -80.38521 3110 ft 211 kts 214°
2026-04-15 21:37 33.86397 -80.39492 3107 ft 210 kts 214°
2026-04-15 21:38 33.85165 -80.40472 3116 ft 211 kts 214°
2026-04-15 21:38 33.83935 -80.41452 3106 ft 211 kts 214°
2026-04-15 21:38 33.82707 -80.42430 3108 ft 212 kts 213°
2026-04-15 21:38 33.81473 -80.43403 3104 ft 212 kts 213°
2026-04-15 21:39 33.80252 -80.44360 3103 ft 211 kts 210°
2026-04-15 21:39 33.78835 -80.44712 3097 ft 214 kts 175°
2026-04-15 21:39 33.77430 -80.44119 3090 ft 215 kts 158°
2026-04-15 21:39 33.76062 -80.43491 2775 ft 203 kts 165°
2026-04-15 21:40 33.74722 -80.43042 2464 ft 199 kts 166°
2026-04-15 21:40 33.73396 -80.42548 2230 ft 201 kts 163°
2026-04-15 21:40 33.72062 -80.41994 2015 ft 204 kts 165°
2026-04-15 21:40 33.70720 -80.41480 1793 ft 202 kts 164°
2026-04-15 21:41 33.69372 -80.40949 1687 ft 207 kts 165°
2026-04-15 21:41 33.67978 -80.40406 1656 ft 213 kts 165°
2026-04-15 21:41 33.66567 -80.39850 1643 ft 215 kts 164°
2026-04-15 21:41 33.65145 -80.39297 1645 ft 213 kts 163°
2026-04-15 21:42 33.63756 -80.38750 1634 ft 212 kts 164°
2026-04-15 21:42 33.62372 -80.38211 1631 ft 204 kts 164°
2026-04-15 21:42 33.60997 -80.37669 1646 ft 210 kts 165°
2026-04-15 21:42 33.59603 -80.37135 1632 ft 215 kts 165°
2026-04-15 21:43 33.58190 -80.36575 1621 ft 208 kts 165°
2026-04-15 21:43 33.56850 -80.36044 1630 ft 191 kts 163°
2026-04-15 21:43 33.55766 -80.35118 1633 ft 188 kts 137°
2026-04-15 21:43 33.54809 -80.34042 1629 ft 188 kts 142°
2026-04-15 21:44 33.53825 -80.33006 1583 ft 189 kts 142°
2026-04-15 21:44 33.52876 -80.32004 1418 ft 169 kts 142°
2026-04-15 21:44 33.52106 -80.31191 1234 ft 134 kts 143°
2026-04-15 21:44 33.51717 -80.30248 1178 ft 132 kts 95°
2026-04-15 21:45 33.51784 -80.29123 1146 ft 145 kts 91°
2026-04-15 21:45 33.51818 -80.27871 1151 ft 154 kts 94°
2026-04-15 21:45 33.51876 -80.26568 1149 ft 157 kts 91°
2026-04-15 21:45 33.51943 -80.25245 1140 ft 158 kts 89°
2026-04-15 21:46 33.52069 -80.24009 1241 ft 149 kts 79°
2026-04-15 21:46 33.52627 -80.22954 1299 ft 151 kts 46°
2026-04-15 21:46 33.53574 -80.22288 958 ft 165 kts 22°
2026-04-15 21:46 33.54552 -80.21791 778 ft 144 kts 23°
2026-04-15 21:47 33.55464 -80.21338 612 ft 138 kts 22°
2026-04-15 21:47 33.56317 -80.21100 424 ft 114 kts 353°
2026-04-15 21:47 33.57163 -80.21170 386 ft 127 kts
2026-04-15 21:47 33.58049 -80.21045 179 ft 124 kts 12°
2026-04-15 21:48 33.58749 -80.20859 97 ft 57 kts 12°
2026-04-15 21:48 33.58844 -80.20826 102 ft 2 kts 75°
2026-04-15 21:48 33.58836 -80.20798 102 ft 9 kts 99°
2026-04-15 21:48 33.58833 -80.20750 102 ft 5 kts 70°
2026-04-15 21:49 33.58849 -80.20739 102 ft 0 kts